Flag for Switzerland Weather past 2 weeks in Meyrin, Geneva, Switzerland

Now
61 °F

Passing clouds.


Feels Like: 61 °F
Forecast: 57 / 75 °F
Wind: 1 mph from North

Location: Geneva Cointrin Airport

Current Time: Aug 1, 2014 at 4:11:28 AM

Latest Report: Aug 1, 2014 at 2:50 AM


Visibility: N/A

Pressure: 29.92 "Hg

Humidity: 94%

Dew point: 59 °F

Location of MeyrinLocation

Historic Weather in Meyrin — Graph

°F

Meyrin temperature yesterday

Maximum temperature yesterday: 79 °F (at 5:20 PM)
Minimum temperature yesterday: 55 °F (at 6:20 AM)
Average temperature yesterday: 68 °F

Past Weeks' High & Low Weather Summary

 TemperatureHumidityPressure
High90 °F (Jul 18, 5:50 PM)100% (Jul 17, 3:50 AM)30.18 "Hg (Jul 17, 3:50 AM)
Low54 °F (Jul 27, 3:50 AM)24% (Jul 18, 6:20 PM)29.83 "Hg (Jul 29, 5:20 AM)
Average67 °F81%29.97 "Hg
* Reported Jul 17 2:20 AM — Aug 1 2:50 AM, Meyrin, Weather by CustomWeather, © 2014

Note: Actual official high and low records may vary slightly from our data, if they occured in-between our weather recording intervals... More about our weather records

Advertising

Meyrin weather history for previous 24 hours

 ConditionsComfort  
Time TempWeatherWind HumidityBarometerVisibility
2:50 AM
Aug 1
61 °FPassing clouds.1 mph94%29.92 "HgN/A
2:20 AM61 °FPassing clouds.2 mph100%29.92 "HgN/A
1:50 AM61 °FPassing clouds.2 mph100%29.92 "HgN/A
1:20 AM63 °FPassing clouds.2 mph94%29.92 "HgN/A
12:50 AM63 °FPassing clouds.2 mph94%29.95 "HgN/A
12:20 AM63 °FPassing clouds.3 mph94%29.95 "HgN/A
11:50 PM
Jul 31
63 °FPassing clouds.1 mph94%29.95 "HgN/A
11:20 PM64 °FPassing clouds.2 mph83%29.92 "HgN/A
10:50 PM64 °FPassing clouds.1 mph88%29.92 "HgN/A
10:20 PM66 °FPassing clouds.1 mph83%29.92 "HgN/A
9:50 PM66 °FPassing clouds.2 mph83%29.92 "HgN/A
9:20 PM68 °FPassing clouds.1 mph78%29.92 "HgN/A
8:50 PM70 °FPassing clouds.2 mph73%29.92 "HgN/A
8:20 PM73 °FPassing clouds.3 mph61%29.92 "HgN/A
7:50 PM77 °FPassing clouds.5 mph54%29.92 "HgN/A
7:20 PM77 °FPassing clouds.6 mph54%29.92 "HgN/A
6:50 PM79 °FPassing clouds.6 mph51%29.92 "HgN/A
6:20 PM79 °FPassing clouds.6 mph51%29.92 "HgN/A
5:50 PM79 °FPassing clouds.7 mph51%29.92 "HgN/A
5:20 PM79 °FPassing clouds.8 mph54%29.92 "HgN/A
4:50 PM77 °FPassing clouds.9 mph61%29.92 "HgN/A
4:20 PM77 °FPassing clouds.9 mph57%29.95 "HgN/A
3:50 PM77 °FPassing clouds.9 mph57%29.95 "HgN/A
3:20 PM77 °FPassing clouds.8 mph57%29.95 "HgN/A
2:50 PM77 °FPassing clouds.8 mph57%29.95 "HgN/A
2:20 PM75 °FPassing clouds.7 mph61%29.95 "HgN/A
1:50 PM73 °FScattered clouds.8 mph65%29.98 "HgN/A
1:20 PM73 °FScattered clouds.10 mph65%29.98 "HgN/A
12:50 PM72 °FScattered clouds.7 mph69%29.98 "HgN/A
12:20 PM70 °FPartly sunny.6 mph78%29.98 "HgN/A
11:50 AM70 °FPartly sunny.7 mph78%29.98 "HgN/A
11:20 AM72 °FScattered clouds.7 mph69%29.98 "HgN/A
10:50 AM70 °FPartly sunny.5 mph73%29.98 "HgN/A
10:20 AM68 °FPartly sunny.2 mph78%29.98 "HgN/A
9:50 AM66 °FPartly sunny.2 mph78%30.01 "HgN/A
9:20 AM66 °FPartly sunny.1 mph83%29.98 "HgN/A
8:50 AM63 °FScattered clouds.1 mph88%29.98 "HgN/A
8:20 AM61 °FScattered clouds.1 mph94%29.98 "HgN/A
7:50 AM59 °FFog.1 mph100%29.98 "HgN/A
7:20 AM57 °FFog.2 mph100%29.98 "HgN/A
6:50 AM57 °FPassing clouds.No wind100%30.01 "HgN/A
6:20 AM55 °FPassing clouds.2 mph100%30.01 "HgN/A
5:50 AM57 °FLight fog.2 mph100%30.01 "Hg6 mi
5:20 AM57 °FLight fog.No wind100%29.98 "HgN/A
4:50 AM57 °FLight fog.1 mph100%29.98 "HgN/A
4:20 AM59 °FLight fog.1 mph100%30.01 "HgN/A
Weather by CustomWeather, © 2014

See weather overviewHow to use our weather pages